Temp
9 9 9 9 9 9 9 9 9 9 9 10 10 10 10 9 10 11 11 12 13 14 14 14 14 15 15 15 15 14 16 16 18 18 20 19 20 21 20 21 21 22 21 20 19
9 9 9 9 9 9 9 8 9 8 9 9 10 9 10 9 10 11 11 12 13 14 14 14 14 14 14 15 15 16 15 16 17 18 19 19 20 20 21 20 21 21 20 17 17
8 9 9 9 8 9 9 8 8 8 8 9 9 9 10 9 10 11 12 12 13 14 14 14 15 15 14 14 14 14 16 16 18 18 19 18 19 19 20 20 21 21 20 19 18
9 8 8 8 8 8 8 8 8 8 8 8 9 9 9 9 12 13 14 13 13 13 14 14 14 14 14 14 14 15 15 16 18 18 18 18 19 19 19 20 20 19 19 20 19
8 8 8 8 8 7 7 8 8 8 8 8 8 9 8 10 11 13 13 14 13 14 14 15 14 15 15 15 15 15 16 16 17 17 17 18 18 18 18 18 18 18 18 19 20
8 8 8 7 8 8 8 7 7 8 8 8 8 8 8 9 12 13 12 14 13 13 14 15 15 15 16 15 16 15 16 17 17 17 17 17 17 16 18 17 17 17 18 18 19
8 8 7 7 7 7 7 7 7 7 7 8 8 7 8 10 12 13 12 13 13 13 14 14 16 16 14 14 15 15 15 16 16 16 17 16 17 15 17 17 18 18 17 17 18
7 7 7 7 7 7 7 7 7 8 7 7 8 7 8 11 11 12 12 13 13 14 14 14 16 15 15 15 15 15 15 15 16 16 16 18 16 17 17 16 17 17 16 15 17
7 7 7 7 7 7 7 7 7 7 7 8 7 7 9 11 11 12 12 12 13 13 13 14 15 15 15 14 14 14 13 14 16 15 16 16 15 17 16 16 17 16 16 15 16
7 7 7 7 7 7 7 7 7 7 7 7 7 7 9 10 11 12 13 12 13 12 14 14 14 13 13 14 14 14 13 13 15 15 14 15 14 15 16 15 15 16 16 16 15
7 7 7 7 7 7 6 7 5 6 7 7 8 8 10 11 11 12 13 12 13 14 13 13 13 13 14 14 14 14 14 14 14 15 15 14 13 15 15 15 15 15 16 17 17
7 7 7 6 7 7 6 5 6 7 6 7 8 9 8 7 11 11 13 12 13 13 11 13 14 15 15 14 14 14 14 14 14 14 14 13 13 15 16 15 15 15 16 16 16
7 7 7 7 6 6 6 6 6 6 6 8 8 9 8 10 12 11 13 13 13 12 10 11 13 16 15 14 15 14 13 13 14 13 12 12 14 14 15 14 14 14 13 14 14
6 6 7 7 6 6 6 6 6 6 0 7 9 9 10 12 11 13 14 13 12 13 11 11 13 14 14 15 15 14 14 14 13 13 14 12 15 14 13 15 13 13 12 13 13
6 6 6 7 6 6 6 7 6 5 3 8 9 9 10 11 11 12 13 13 13 12 13 12 13 13 13 13 14 13 13 12 12 11 12 12 13 15 13 14 14 13 12 12 12
6 6 7 7 6 6 6 7 6 2 4 8 9 8 10 11 12 13 13 13 13 12 13 12 13 14 12 11 12 12 11 10 9 10 12 11 12 15 14 14 13 13 13 12 12
7 6 7 6 5 5 6 5 3 6 7 9 9 7 11 11 12 13 11 12 11 11 10 10 12 13 12 11 12 13 13 12 11 11 13 9 10 13 13 13 13 14 13 12 12
7 7 7 6 6 6 6 3 5 8 8 8 8 11 12 11 12 12 11 11 12 11 10 11 11 13 13 12 12 11 13 12 13 12 12 9 11 14 12 12 12 13 12 11 12
7 8 8 7 7 7 5 4 4 6 7 8 10 10 11 11 11 10 11 11 11 12 12 10 10 12 12 12 13 11 10 10 8 7 9 11 11 12 12 12 13 12 12 13 12
6 6 7 7 7 6 3 8 7 6 8 10 10 10 10 11 11 10 12 12 11 11 12 11 10 12 12 13 11 12 10 10 7 11 12 12 11 14 13 13 12 13 12 12 12
6 5 8 7 7 6 7 8 7 9 8 10 10 9 10 10 11 11 11 12 12 11 11 11 11 11 12 11 11 11 10 8 9 9 12 12 14 11 12 13 12 13 12 12 12
3 5 8 7 5 6 8 8 9 9 10 11 11 11 10 11 11 11 11 12 12 12 12 11 10 11 11 10 10 11 10 9 9 9 7 8 12 12 12 12 11 12 12 12 12
3 3 9 7 7 8 9 9 9 9 10 12 12 12 11 11 11 11 11 11 12 12 11 11 9 8 10 11 10 10 9 8 7 6 7 9 13 11 10 11 12 12 12 11 12
3 5 4 5 7 9 9 9 11 9 11 11 11 11 11 10 10 10 11 11 11 12 12 11 9 10 9 10 8 8 9 8 8 7 8 8 10 12 12 12 12 12 11 11 11
3 6 7 5 8 8 9 9 10 10 10 10 12 12 11 11 11 10 10 10 11 12 10 10 8 7 9 10 7 9 9 8 7 8 9 10 9 12 12 12 13 14 11 10 9
6 6 7 7 7 8 9 10 10 10 10 11 10 10 12 11 11 9 10 10 11 10 10 9 8 6 7 9 8 8 9 9 9 9 9 10 10 13 13 12 13 11 10 9 8
4 5 5 7 6 7 9 10 11 10 10 10 10 10 9 9 10 10 10 9 10 10 9 10 7 7 7 9 9 9 9 9 8 8 11 9 12 12 12 12 12 10 8 7 7
Height
801 799 797 795 793 790 789 786 786 784 784 784 783 782 782 780 778 779 776 777 779 780 783 786 789 793 795 797 797 800 809 814 806 811 805 801 802 798 797 799 797 796 797 795 794
799 796 793 791 788 787 785 783 782 780 780 780 780 779 779 777 772 767 769 773 775 778 782 785 787 791 796 797 797 798 807 805 798 797 799 799 799 798 799 802 799 797 796 796 796
796 793 790 787 784 782 780 779 777 776 776 775 776 776 776 776 772 761 762 767 771 775 779 783 786 789 795 797 797 799 800 798 795 795 793 799 800 798 800 802 798 799 798 797 797
793 790 787 784 781 779 776 775 774 772 772 772 772 773 773 772 765 755 757 759 765 772 776 779 784 788 794 795 792 798 796 794 792 793 795 799 797 800 799 796 794 796 797 796 797
790 786 783 780 777 775 773 771 770 769 769 769 769 769 770 764 757 754 754 756 760 766 771 774 778 782 786 790 792 796 794 793 791 795 796 797 800 799 797 795 794 796 796 796 796
786 783 780 777 774 772 770 768 766 766 765 766 766 766 767 763 752 752 752 753 756 761 766 770 772 777 783 788 788 790 792 793 792 793 794 798 799 800 794 792 794 796 794 795 795
782 779 776 773 771 769 767 765 763 763 762 762 763 763 760 750 748 745 751 752 754 759 760 767 769 774 779 788 786 790 797 795 793 795 796 796 799 799 790 791 791 791 793 793 792
779 775 772 770 767 766 764 762 760 759 759 759 760 760 752 747 749 751 751 750 753 758 762 766 769 773 776 780 787 793 795 801 790 792 793 795 802 790 789 793 791 790 791 793 789
775 771 768 766 764 762 760 758 756 754 755 756 758 758 749 744 746 745 748 749 752 758 762 765 769 773 777 785 793 796 802 802 794 791 792 794 800 789 789 791 790 789 788 788 786
770 767 764 761 760 759 757 755 752 751 751 754 756 760 747 745 743 745 746 748 752 756 764 768 771 777 782 782 786 789 797 800 797 793 795 797 799 792 786 789 789 787 784 782 782
765 760 757 757 756 756 755 753 754 755 753 753 751 748 739 742 741 743 746 747 749 752 762 765 769 768 771 779 780 784 792 795 794 792 795 796 799 792 787 786 785 782 779 775 773
760 755 751 751 753 754 753 753 754 757 756 749 749 747 747 749 745 744 747 750 748 751 760 763 764 766 770 777 781 786 792 796 794 794 794 797 795 782 778 780 779 777 775 776 774
757 750 744 745 749 751 752 753 753 755 755 748 747 743 747 743 739 748 747 743 747 753 771 770 766 758 767 776 780 788 791 795 792 795 799 799 786 782 780 780 780 778 777 776 776
757 750 743 745 751 751 752 752 752 754 782 752 747 746 741 737 743 745 745 746 751 752 764 768 765 764 767 773 775 786 786 792 794 796 799 805 796 786 788 783 785 783 780 778 776
761 756 754 750 752 753 755 753 753 756 790 753 746 745 743 743 746 747 745 748 751 755 757 771 764 769 773 774 775 788 789 796 800 807 805 807 805 784 787 785 787 785 784 781 778
764 757 756 755 754 756 755 755 756 780 785 754 746 750 743 744 744 747 749 752 753 757 760 766 765 768 779 785 785 793 798 807 815 811 808 811 811 787 787 788 788 786 783 781 778
768 762 756 757 760 759 758 758 776 762 764 751 752 758 743 749 747 749 755 756 761 769 775 781 777 776 779 791 790 791 793 801 808 816 801 822 818 789 787 787 786 784 782 780 777
769 766 763 761 760 760 758 768 771 759 756 756 756 746 742 752 751 754 757 761 762 766 780 779 785 778 778 782 789 796 792 798 795 803 803 822 805 783 786 787 784 782 782 781 777
766 765 764 762 760 761 762 773 782 769 763 754 746 748 750 754 755 764 762 764 764 764 767 782 791 783 783 782 785 797 806 808 826 839 824 804 799 787 784 786 784 781 778 773 772
766 763 763 761 760 760 771 758 763 767 760 752 753 755 758 760 762 767 760 764 765 764 762 775 791 784 786 782 790 789 804 808 827 813 801 798 802 782 784 782 781 777 776 773 771
765 766 761 760 760 759 763 761 763 757 758 751 756 760 761 762 762 762 764 764 761 765 765 773 780 790 784 790 795 800 805 816 815 821 800 796 780 783 780 779 779 772 772 771 769
768 774 760 760 768 770 762 765 760 755 753 749 749 752 758 759 761 763 765 761 762 761 770 776 785 790 793 796 795 795 801 808 814 822 832 825 790 778 778 776 778 773 770 767 766
775 772 760 759 770 768 764 762 760 757 754 747 748 749 754 759 763 765 765 765 763 762 770 775 796 806 796 797 798 795 802 807 816 825 829 817 784 779 781 777 774 772 767 767 767
777 778 769 764 767 765 765 763 755 756 752 751 751 751 754 762 764 766 767 768 766 765 766 772 793 792 798 795 800 806 801 805 809 825 817 813 794 775 774 774 769 767 767 769 769
779 779 775 779 767 768 765 763 757 759 754 752 750 751 754 762 765 770 769 770 771 768 774 776 797 802 795 790 803 797 795 804 812 807 804 792 797 776 773 771 765 764 768 768 770
780 780 775 773 770 765 761 760 759 758 759 754 756 757 753 758 757 769 768 770 770 774 776 783 799 805 804 791 797 798 795 798 799 796 795 794 785 766 763 766 764 765 769 771 772
785 784 782 772 774 769 765 758 756 757 758 757 757 760 763 763 762 761 763 766 766 773 779 780 799 806 808 796 795 795 786 787 792 792 783 793 771 767 764 764 763 769 772 773 773
Wind_Speed
21 21 21 21 21 21 20 19 19 16 13 15 16 19 19 21 24 19 18 15 26 9 4 12 12 9 3 2 3 3 2 5 9 9 4 3 4 1 1 1 2 2 2 7 3
23 22 23 22 21 20 20 19 19 17 15 13 15 18 19 21 25 21 17 20 21 20 18 13 11 10 3 4 3 4 4 9 5 6 4 5 3 3 2 2 1 1 4 5 10
23 23 23 22 20 20 19 18 19 18 15 13 14 15 16 13 7 6 26 29 23 20 15 14 17 8 4 3 4 4 4 4 3 4 4 6 3 3 4 3 4 2 1 3 6
22 23 22 21 19 19 18 17 18 18 16 14 13 14 14 12 6 2 2 20 29 24 18 14 12 10 6 6 5 4 5 4 2 5 4 4 4 1 4 4 3 4 1 1 7
22 22 21 20 18 17 16 15 16 14 13 14 14 13 10 6 8 5 5 6 27 27 23 13 14 9 13 8 5 3 2 5 3 3 3 3 3 5 6 5 5 4 4 5 2
22 21 21 18 16 16 15 14 13 12 13 13 13 11 8 9 7 23 16 11 23 28 25 13 12 5 9 6 6 7 6 3 2 2 1 4 4 6 5 3 5 4 9 7 7
23 20 21 18 16 16 16 12 11 10 11 12 10 9 7 13 2 9 8 6 25 29 17 13 19 6 6 5 4 6 4 5 7 4 3 4 5 6 10 6 9 9 7 9 10
22 21 20 18 16 16 14 13 13 14 12 10 8 7 6 8 13 18 4 5 23 25 23 19 13 5 3 4 4 5 2 3 2 9 5 6 5 5 2 4 9 10 9 8 13
24 22 19 16 16 15 14 15 17 16 12 9 4 4 5 3 7 14 11 5 18 20 20 22 11 4 3 6 4 4 4 5 3 7 3 8 2 4 2 3 7 8 10 8 11
26 25 19 17 15 13 14 15 17 6 2 5 2 3 5 4 5 5 4 9 9 12 11 12 5 4 3 5 9 9 4 3 6 3 2 3 5 8 9 2 7 9 11 11 9
31 27 21 15 12 10 9 6 4 3 1 3 4 5 5 5 7 2 3 5 7 11 9 11 6 16 17 5 4 8 5 4 3 1 2 4 4 10 10 6 10 12 13 14 12
33 27 19 13 8 7 8 3 2 1 4 4 8 8 10 11 4 2 5 5 7 7 5 7 12 9 12 8 6 6 6 4 1 2 1 4 9 15 9 5 6 8 10 8 7
33 31 20 10 3 4 3 3 3 2 2 2 2 6 7 9 9 12 6 1 4 10 13 1 1 15 13 9 9 2 5 3 2 1 2 6 5 4 3 3 6 9 4 3 4
32 28 15 7 3 4 1 3 4 3 4 3 3 3 3 2 5 4 7 2 3 7 16 3 3 8 13 15 8 5 3 3 4 2 1 4 4 4 3 5 7 10 10 8 8
29 21 16 9 3 3 4 3 6 4 6 6 2 4 5 3 8 1 4 3 4 6 4 1 9 16 9 2 8 2 4 4 3 4 1 2 2 4 1 4 5 6 7 7 6
25 18 12 9 10 4 7 7 1 5 3 3 4 4 2 5 1 4 4 3 2 9 12 4 1 4 3 5 5 9 5 5 3 2 1 1 2 2 1 2 1 3 5 6 7
18 21 13 10 4 2 1 3 4 5 5 3 2 3 10 5 6 3 1 3 4 4 3 4 4 4 9 8 4 1 3 1 2 2 2 2 1 5 3 2 5 1 5 6 6
9 11 13 10 3 4 7 4 9 2 2 2 0 12 7 5 7 4 2 4 5 5 4 3 4 4 1 4 7 1 1 3 3 3 1 2 5 2 4 4 3 3 6 5 4
8 5 2 3 3 6 2 5 4 2 3 1 6 7 5 8 4 4 3 3 3 1 5 5 3 1 5 3 1 3 2 1 6 2 1 2 5 6 2 3 3 7 5 9 6
6 4 2 6 3 3 3 3 1 4 3 2 4 2 3 3 3 2 2 2 3 3 1 1 5 3 2 3 8 3 6 2 2 3 3 3 4 3 4 5 4 8 7 7 7
3 3 1 8 1 2 3 3 3 2 3 2 3 5 3 4 3 2 1 1 2 3 5 3 3 2 3 1 5 2 1 4 4 1 2 2 3 4 6 5 4 9 7 6 5
4 3 5 5 4 2 3 5 4 3 3 2 3 4 3 2 3 3 3 2 2 4 4 1 4 3 1 1 1 2 4 3 3 3 1 1 5 2 5 4 4 9 7 6 6
3 2 3 3 4 3 2 3 1 3 3 2 2 2 1 3 4 2 2 4 2 3 5 5 2 3 1 1 2 2 4 4 4 3 4 4 3 1 2 6 6 6 6 5 8
2 3 4 4 2 2 3 3 3 1 2 3 3 4 4 4 5 3 2 4 1 3 8 6 3 4 5 4 3 3 3 4 5 3 4 5 5 8 7 6 10 8 3 5 6
3 1 1 3 3 3 1 3 1 3 4 5 3 2 4 3 2 3 3 3 4 4 4 3 3 2 2 1 3 3 4 8 6 5 5 2 6 8 10 8 10 6 4 6 7
3 3 3 3 3 4 2 4 2 0 2 2 5 2 1 4 3 6 6 3 4 2 3 2 3 2 3 0 5 4 7 9 8 3 8 7 17 14 13 6 5 3 5 6 7
6 4 2 4 3 1 1 1 3 1 2 4 4 4 6 3 1 2 1 4 6 6 3 4 5 2 3 2 2 5 9 12 5 5 9 7 10 3 7 6 5 3 2 5 5
Wind_Direction
318 317 315 316 315 313 308 303 299 282 282 289 304 296 306 304 309 233 230 223 221 198 104 187 188 180 160 143 124 135 138 195 201 168 204 163 168 179 52 102 320 194 332 310 273
324 320 317 317 309 309 309 307 299 293 285 285 299 302 303 312 311 237 228 227 217 225 236 193 181 147 158 172 169 161 187 207 197 173 185 162 172 174 135 26 237 139 3 33 156
322 321 317 314 313 311 308 305 299 294 281 275 286 303 298 309 276 246 236 227 219 210 215 205 170 155 169 158 176 162 203 180 207 186 133 148 161 167 134 255 227 149 332 87 164
325 321 320 321 315 316 315 309 304 296 291 289 287 296 294 291 244 89 196 221 209 201 205 184 164 171 161 182 167 154 208 172 173 194 126 161 137 189 197 216 146 151 355 99 168
324 321 321 324 322 322 319 316 308 300 291 284 284 287 296 235 234 215 303 305 197 193 197 181 170 175 188 179 122 178 189 196 199 126 173 133 191 231 246 244 258 265 282 275 215
321 322 320 320 319 318 316 316 310 295 291 289 289 282 244 258 231 236 285 302 183 191 193 177 177 155 163 182 173 183 186 167 217 226 221 180 226 149 256 259 248 227 260 264 262
322 320 316 313 314 313 315 315 313 303 294 286 289 285 240 228 341 257 281 263 193 192 182 182 157 151 130 127 178 128 143 249 229 200 242 163 271 229 240 247 257 263 261 268 255
326 320 314 311 314 311 312 312 301 295 285 279 276 281 251 235 267 245 282 293 179 189 183 192 171 109 126 118 75 118 89 164 239 174 219 131 249 230 270 217 261 272 273 265 270
325 321 319 308 314 311 306 304 303 300 280 259 248 197 253 239 230 234 239 267 168 176 178 173 163 151 108 120 101 172 187 197 299 190 137 202 233 228 319 189 276 283 281 257 265
326 319 312 309 309 308 309 306 313 321 159 178 259 125 255 203 169 128 230 223 161 155 164 179 175 145 129 173 190 168 136 175 200 178 160 194 261 271 296 230 249 272 276 271 250
326 318 302 296 304 311 325 337 22 4 46 191 197 243 141 106 143 183 193 145 148 140 178 181 172 197 186 148 161 134 135 167 197 112 193 231 250 272 265 261 254 251 254 258 269
336 325 308 286 287 307 314 145 174 183 315 258 249 275 285 312 166 253 190 180 157 181 53 156 204 182 156 141 133 131 142 188 85 71 153 335 285 262 256 242 258 275 276 283 293
347 343 322 260 239 295 167 179 124 213 285 343 149 235 240 218 132 198 186 213 121 131 132 120 267 161 165 167 138 132 154 169 129 43 79 319 297 307 32 27 23 14 333 351 336
358 2 20 107 94 121 340 352 192 163 77 14 131 173 257 126 95 155 179 115 76 129 125 156 161 125 148 181 168 152 96 105 111 91 275 0 300 307 12 69 33 26 33 34 30
7 17 29 45 81 21 348 76 126 71 68 298 354 342 44 346 141 88 22 360 112 94 154 57 157 155 151 102 109 133 132 118 101 98 56 21 131 274 277 75 21 355 359 5 8
13 23 25 46 50 48 105 133 53 39 38 344 31 24 207 124 117 111 84 11 171 59 47 69 69 66 94 63 101 154 80 58 55 95 63 229 206 298 142 123 326 309 338 352 5
12 25 49 45 19 27 50 13 30 55 281 62 74 339 120 120 115 104 128 94 103 119 74 43 16 73 114 77 43 44 136 57 24 47 210 24 145 251 258 208 194 304 341 344 352
341 21 39 43 58 32 337 41 56 22 2 56 277 138 102 126 73 74 163 87 60 71 109 119 114 359 28 138 160 133 179 158 186 182 210 71 230 229 214 317 212 287 287 282 319
329 290 5 12 302 311 19 47 158 284 307 39 85 58 52 53 80 77 347 77 43 52 128 131 80 14 43 91 85 186 97 133 104 24 6 206 279 293 89 171 258 319 337 1 347
341 309 267 328 315 72 71 76 3 195 242 172 81 49 88 87 78 86 53 282 105 35 44 115 93 35 167 72 39 98 136 89 11 138 248 269 268 208 222 212 286 348 350 332 328
354 38 319 339 360 51 53 35 313 281 214 110 167 105 105 136 125 124 49 348 75 54 77 110 86 26 121 74 160 118 118 59 104 102 174 299 266 208 199 195 310 342 328 322 334
360 31 343 0 54 18 12 335 331 305 221 265 100 91 103 133 77 83 127 168 182 134 79 59 114 112 118 164 198 149 154 144 124 206 99 93 274 242 209 225 328 302 309 326 342
351 282 349 351 68 19 321 305 266 323 343 31 92 103 97 115 107 104 104 343 146 97 155 177 57 97 126 176 14 183 169 121 97 71 203 159 254 202 282 288 290 280 318 340 347
37 6 327 35 151 97 5 312 338 236 319 20 102 68 93 61 28 133 102 10 235 76 90 90 110 149 181 199 133 166 168 172 134 152 179 228 294 288 297 302 317 321 332 343 347
32 41 15 317 357 354 147 289 333 1 347 30 56 65 141 115 98 111 106 110 31 116 61 95 117 111 254 156 130 198 176 184 198 188 172 252 226 273 281 296 303 313 359 354 347
8 352 334 281 287 299 18 10 1 329 339 3 109 40 150 136 175 185 135 149 178 65 102 23 127 96 346 152 204 242 222 198 218 228 264 265 286 275 275 287 287 43 6 333 346
348 324 296 306 338 50 269 295 307 234 51 60 145 95 49 323 215 136 95 118 147 139 129 114 132 88 273 351 299 281 223 198 185 205 210 209 234 317 307 318 337 359 321 343 346